Weather History for South St. Paul, MN

Change the Weather History Date:

Thursday, April 25, 2013

  Actual Average (KMSP) Record (KMSP)
Temperature  
Mean Temperature 42 °F 52 °F  
Max Temperature 50 °F 63 °F 91 °F (1962)
Min Temperature 34 °F 42 °F 25 °F (1907)
Degree Days  
Heating Degree Days 23 13  
Month to date heating degree days 471  
Since 1 July heating degree days 7259  
Cooling Degree Days 0 0  
Month to date cooling degree days 0  
Year to date cooling degree days 0  
Moisture  
Dew Point 28 °F    
Average Humidity 61    
Maximum Humidity 86    
Minimum Humidity 35    
Precipitation  
Precipitation 0.00 in 0.10 in 1.47 in (1902)
Month to date precipitation 2.12  
Year to date precipitation 5.68  
Snow  
Snow 0.00 in 0.10 in 3.20 in (1950)
Month to date snowfall 2.2  
Since 1 July snowfall 54.2  
Snow Depth -    
Sea Level Pressure  
Sea Level Pressure 30.12 in    
Wind  
Wind Speed 8 mph (WSW)    
Max Wind Speed 14 mph    
Max Gust Speed 18 mph    
Visibility 10 miles    
Events      
T = Trace of Precipitation, MM = Missing Value Source: NWS Daily Summary

Daily Weather History Graph

Daily Weather History Graph

Search for Another Location

Airport:

Trip Planner

Search our weather history database for the weather conditions in past years. The results will help you decide how hot, cold, wet, or windy it might be!

Date:

Astronomy

Apr. 25, 2013 Rise Set
Actual Time 6:10 AM CDT 8:10 PM CDT
Civil Twilight 5:38 AM CDT 8:42 PM CDT
Nautical Twilight 5:00 AM CDT 9:21 PM CDT
Astronomical Twilight 4:17 AM CDT 10:03 PM CDT
Moon 8:25 PM CDT (4/25) 5:54 AM CDT (4/25)
Length of Visible Light 15h 03m
Length of Day
13h 59m
Full, 100% of the Moon is Illuminated
Apr 25
Full
Apr 25
Full
May 2
Last Quarter
May 9
New
May 17
First Quarter

Hourly Weather History & Observations

Time (CDT) Temp. Windchill Dew Point Humidity Pressure Visibility Wind Dir Wind Speed Gust Speed Precip Events Conditions
12:13 AM 38.1 °F 31.7 °F 33.1 °F 82% 29.97 in 10.0 mi West 9.2 mph - N/A   Scattered Clouds
12:33 AM 37.9 °F 30.9 °F 32.9 °F 82% 29.98 in 10.0 mi West 10.4 mph - N/A   Mostly Cloudy
12:53 AM 37.6 °F 29.1 °F 32.0 °F 80% 29.98 in 10.0 mi West 13.8 mph 18.4 mph N/A   Mostly Cloudy
1:13 AM 36.7 °F 31.2 °F 32.0 °F 83% 29.99 in 10.0 mi West 6.9 mph 16.1 mph N/A   Scattered Clouds
1:33 AM 36.1 °F 29.9 °F 31.8 °F 84% 30.00 in 10.0 mi WNW 8.1 mph - N/A   Scattered Clouds
1:53 AM 36.3 °F 29.5 °F 31.8 °F 84% 30.01 in 10.0 mi West 9.2 mph - N/A   Mostly Cloudy
2:13 AM 36.7 °F 29.4 °F 32.0 °F 83% 30.02 in 10.0 mi West 10.4 mph - N/A   Overcast
2:33 AM 36.5 °F 28.7 °F 32.0 °F 84% 30.02 in 10.0 mi WNW 11.5 mph - N/A   Overcast
2:53 AM 36.5 °F 30.3 °F 32.0 °F 84% 30.02 in 10.0 mi West 8.1 mph - N/A   Overcast
3:13 AM 36.0 °F 29.6 °F 32.0 °F 86% 30.03 in 10.0 mi West 8.1 mph - N/A   Overcast
3:33 AM 36.0 °F 29.6 °F 32.0 °F 86% 30.04 in 10.0 mi WNW 8.1 mph - N/A   Overcast
3:53 AM 36.0 °F 29.6 °F 31.1 °F 82% 30.04 in 10.0 mi WNW 8.1 mph - N/A   Overcast
4:13 AM 36.0 °F 30.3 °F 30.7 °F 81% 30.05 in 10.0 mi WNW 6.9 mph - N/A   Overcast
4:33 AM 35.8 °F 30.9 °F 30.6 °F 81% 30.06 in 10.0 mi West 5.8 mph - N/A   Overcast
4:53 AM 35.6 °F 29.2 °F 30.2 °F 81% 30.07 in 10.0 mi West 8.1 mph - N/A   Overcast
5:13 AM 35.6 °F 29.9 °F 30.0 °F 80% 30.08 in 10.0 mi West 6.9 mph - N/A   Overcast
5:33 AM 35.1 °F 27.9 °F 29.7 °F 81% 30.08 in 10.0 mi West 9.2 mph - N/A   Overcast
5:53 AM 34.7 °F 28.1 °F 29.3 °F 81% 30.09 in 10.0 mi West 8.1 mph - N/A   Overcast
6:12 AM 34.7 °F 27.5 °F 29.1 °F 80% 30.10 in 10.0 mi West 9.2 mph - N/A   Mostly Cloudy
6:33 AM 34.5 °F 28.6 °F 28.9 °F 80% 30.11 in 10.0 mi West 6.9 mph - N/A   Mostly Cloudy
6:53 AM 34.2 °F 27.5 °F 28.9 °F 81% 30.12 in 10.0 mi West 8.1 mph - N/A   Scattered Clouds
7:13 AM 34.3 °F 27.7 °F 28.6 °F 79% 30.13 in 10.0 mi West 8.1 mph - N/A   Mostly Cloudy
7:33 AM 34.2 °F 28.2 °F 28.4 °F 79% 30.14 in 10.0 mi West 6.9 mph - N/A   Scattered Clouds
7:53 AM 34.7 °F 28.8 °F 28.4 °F 78% 30.15 in 10.0 mi West 6.9 mph - N/A   Scattered Clouds
8:13 AM 35.2 °F 29.5 °F 28.6 °F 77% 30.16 in 10.0 mi West 6.9 mph - N/A   Scattered Clouds
8:33 AM 35.6 °F 28.0 °F 28.4 °F 75% 30.17 in 10.0 mi West 10.4 mph 16.1 mph N/A   Scattered Clouds
8:53 AM 35.6 °F 28.0 °F 28.2 °F 75% 30.17 in 10.0 mi West 10.4 mph - N/A   Scattered Clouds
9:13 AM 36.3 °F 28.9 °F 28.4 °F 73% 30.18 in 10.0 mi West 10.4 mph 16.1 mph N/A   Mostly Cloudy
9:33 AM 37.2 °F 31.2 °F 28.4 °F 70% 30.18 in 10.0 mi West 8.1 mph - N/A   Scattered Clouds
9:53 AM 38.3 °F 33.2 °F 28.4 °F 68% 30.18 in 10.0 mi West 6.9 mph - N/A   Scattered Clouds
10:13 AM 38.8 °F 33.2 °F 28.6 °F 67% 30.19 in 10.0 mi WSW 8.1 mph - N/A   Mostly Cloudy
10:33 AM 39.2 °F 33.0 °F 28.2 °F 65% 30.20 in 10.0 mi WSW 9.2 mph - N/A   Mostly Cloudy
10:53 AM 40.5 °F 35.1 °F 28.9 °F 64% 30.20 in 10.0 mi WSW 8.1 mph - N/A   Mostly Cloudy
11:13 AM 40.1 °F 34.1 °F 28.4 °F 63% 30.20 in 10.0 mi WSW 9.2 mph - N/A   Scattered Clouds
11:32 AM 40.8 °F 36.9 °F 28.6 °F 62% 30.20 in 10.0 mi SW 5.8 mph - N/A   Scattered Clouds
11:53 AM 41.2 °F 36.6 °F 28.4 °F 60% 30.20 in 10.0 mi West 6.9 mph - N/A   Scattered Clouds
12:13 PM 42.1 °F 36.1 °F 28.9 °F 60% 30.20 in 10.0 mi SW 10.4 mph - N/A   Scattered Clouds
12:33 PM 43.5 °F 39.4 °F 29.1 °F 57% 30.19 in 10.0 mi SW 6.9 mph - N/A   Clear
12:53 PM 43.9 °F 41.3 °F 28.2 °F 54% 30.19 in 10.0 mi WSW 4.6 mph - N/A   Scattered Clouds
1:13 PM 44.8 °F 40.4 °F 28.4 °F 53% 30.18 in 10.0 mi South 8.1 mph - N/A   Clear
1:33 PM 45.3 °F 40.6 °F 28.0 °F 51% 30.18 in 10.0 mi WSW 9.2 mph - N/A   Clear
1:53 PM 46.0 °F 43.9 °F 27.7 °F 49% 30.18 in 10.0 mi South 4.6 mph - N/A   Scattered Clouds
2:13 PM 46.4 °F 43.5 °F 27.7 °F 48% 30.17 in 10.0 mi WSW 5.8 mph - N/A   Clear
2:33 PM 47.3 °F - 27.9 °F 47% 30.17 in 10.0 mi WSW 6.9 mph - N/A   Mostly Cloudy
2:53 PM 47.8 °F - 28.4 °F 47% 30.17 in 10.0 mi SSW 8.1 mph 16.1 mph N/A   Mostly Cloudy
3:13 PM 47.7 °F - 27.0 °F 45% 30.16 in 10.0 mi SW 6.9 mph - N/A   Scattered Clouds
3:33 PM 48.6 °F - 24.4 °F 39% 30.16 in 10.0 mi SW 8.1 mph - N/A   Clear
3:52 PM 48.0 °F - 25.5 °F 41% 30.16 in 10.0 mi SW 6.9 mph - N/A   Clear
4:13 PM 48.9 °F - 25.3 °F 40% 30.16 in 10.0 mi SSW 6.9 mph - N/A   Clear
4:33 PM 49.3 °F - 25.0 °F 39% 30.15 in 10.0 mi South 9.2 mph - N/A   Clear
4:53 PM 50.0 °F - 23.4 °F 35% 30.15 in 10.0 mi WSW 10.4 mph - N/A   Clear
5:13 PM 50.2 °F - 24.1 °F 36% 30.15 in 10.0 mi South 6.9 mph - N/A   Clear
5:33 PM 50.2 °F - 24.4 °F 37% 30.14 in 10.0 mi South 5.8 mph - N/A   Clear
5:53 PM 50.4 °F - 25.2 °F 37% 30.14 in 10.0 mi South 6.9 mph - N/A   Clear
6:13 PM 50.4 °F - 23.9 °F 36% 30.14 in 10.0 mi SSE 6.9 mph - N/A   Clear
6:33 PM 50.0 °F - 23.5 °F 36% 30.13 in 10.0 mi SSW 5.8 mph - N/A   Clear
6:53 PM 50.0 °F - 24.6 °F 37% 30.13 in 10.0 mi SSE 4.6 mph - N/A   Scattered Clouds
7:13 PM 50.0 °F - 25.9 °F 39% 30.13 in 10.0 mi South 6.9 mph - N/A   Overcast
7:33 PM 49.1 °F - 25.5 °F 40% 30.13 in 10.0 mi South 5.8 mph - N/A   Mostly Cloudy
7:53 PM 48.6 °F - 26.1 °F 42% 30.14 in 10.0 mi South 3.5 mph - N/A   Scattered Clouds
8:13 PM 48.6 °F - 26.2 °F 42% 30.13 in 10.0 mi SSE 3.5 mph - N/A   Mostly Cloudy
8:33 PM 47.7 °F - 26.4 °F 44% 30.13 in 10.0 mi Calm Calm - N/A   Mostly Cloudy
8:53 PM 47.3 °F - 27.1 °F 46% 30.14 in 10.0 mi Calm Calm - N/A   Scattered Clouds
9:12 PM 46.9 °F - 27.1 °F 46% 30.13 in 10.0 mi Calm Calm - N/A   Clear
9:33 PM 46.9 °F - 27.3 °F 46% 30.13 in 10.0 mi SSE 3.5 mph - N/A   Clear
9:52 PM 46.6 °F - 27.5 °F 47% 30.13 in 10.0 mi SE 4.6 mph - N/A   Clear
10:13 PM 46.2 °F 45.0 °F 27.7 °F 48% 30.12 in 10.0 mi SE 3.5 mph - N/A   Clear
10:33 PM 45.9 °F 44.6 °F 28.4 °F 51% 30.11 in 10.0 mi SE 3.5 mph - N/A   Mostly Cloudy
10:53 PM 45.9 °F 42.9 °F 29.3 °F 52% 30.11 in 10.0 mi SSE 5.8 mph - N/A   Mostly Cloudy
11:13 PM 45.9 °F 42.3 °F 28.8 °F 51% 30.11 in 10.0 mi SE 6.9 mph - N/A   Scattered Clouds
11:33 PM 45.5 °F 41.8 °F 28.4 °F 51% 30.10 in 10.0 mi SE 6.9 mph - N/A   Clear
11:53 PM 45.5 °F 41.8 °F 29.1 °F 53% 30.10 in 10.0 mi SE 6.9 mph - N/A   Clear